date,time,SUV Intensity [MED/Hr],UV Index,Daily total [MED],Since Last [MED]
21/06/2022,00:09:20,-0.001,0.0,0.0,0.0
21/06/2022,00:10:30,0.000,0.0,0.0,0.0
21/06/2022,00:11:29,-0.000,0.0,0.0,0.0
21/06/2022,00:12:29,0.000,0.0,0.0,0.0
21/06/2022,00:13:29,0.000,0.0,0.0,0.0
21/06/2022,00:14:29,0.000,0.0,0.0,0.0
21/06/2022,00:15:30,0.001,0.0,0.0,0.0
21/06/2022,00:16:29,0.000,0.0,0.0,0.0
21/06/2022,00:17:29,-0.000,0.0,0.0,0.0
21/06/2022,00:18:29,0.000,0.0,0.0,0.0
21/06/2022,00:19:29,0.000,0.0,0.0,0.0
21/06/2022,00:20:30,0.001,0.0,0.0,0.0
21/06/2022,00:21:29,0.001,0.0,0.0,0.0
21/06/2022,00:22:30,0.000,0.0,0.0,0.0
21/06/2022,00:23:38,0.000,0.0,0.0,0.0
21/06/2022,00:25:30,0.001,0.0,0.0,0.0
21/06/2022,00:26:29,0.000,0.0,0.0,0.0
21/06/2022,00:27:32,0.000,0.0,0.0,0.0
21/06/2022,00:28:29,0.001,0.0,0.0,0.0
21/06/2022,00:29:29,0.001,0.0,0.0,0.0
21/06/2022,00:30:29,0.001,0.0,0.0,0.0
21/06/2022,00:31:29,-0.000,0.0,0.0,0.0
21/06/2022,00:32:29,0.001,0.0,0.0,0.0
21/06/2022,00:33:30,0.000,0.0,0.0,0.0
21/06/2022,00:34:29,0.000,0.0,0.0,0.0
21/06/2022,00:35:30,0.000,0.0,0.0,0.0
21/06/2022,00:36:38,0.000,0.0,0.0,0.0
21/06/2022,00:37:29,0.000,0.0,0.0,0.0
21/06/2022,00:38:29,0.001,0.0,0.0,0.0
21/06/2022,00:39:30,0.000,0.0,0.0,0.0
21/06/2022,00:40:29,-0.000,0.0,0.0,0.0
21/06/2022,00:41:29,0.000,0.0,0.0,0.0
21/06/2022,00:42:30,0.000,0.0,0.0,0.0
21/06/2022,00:43:29,0.000,0.0,0.0,0.0
21/06/2022,00:44:29,0.000,0.0,0.0,0.0
21/06/2022,00:45:29,0.001,0.0,0.0,0.0
21/06/2022,00:46:29,0.001,0.0,0.0,0.0
21/06/2022,00:47:29,-0.001,0.0,0.0,0.0
21/06/2022,00:48:21,0.000,0.0,0.0,0.0
21/06/2022,00:49:30,-0.000,0.0,0.0,0.0
21/06/2022,00:50:30,0.000,0.0,0.0,0.0
21/06/2022,00:51:38,0.001,0.0,0.0,0.0
21/06/2022,00:52:29,0.001,0.0,0.0,0.0
21/06/2022,00:53:29,0.000,0.0,0.0,0.0
21/06/2022,00:54:30,0.001,0.0,0.0,0.0
21/06/2022,00:55:29,0.000,0.0,0.0,0.0
21/06/2022,00:56:29,0.000,0.0,0.0,0.0
21/06/2022,00:57:29,0.000,0.0,0.0,0.0
21/06/2022,00:58:29,-0.001,0.0,0.0,0.0
21/06/2022,00:59:29,0.000,0.0,0.0,0.0
21/06/2022,01:00:29,0.000,0.0,0.0,0.0
21/06/2022,01:01:30,0.001,0.0,0.0,0.0
21/06/2022,01:02:29,0.000,0.0,0.0,0.0
21/06/2022,01:03:29,0.000,0.0,0.0,0.0
21/06/2022,01:04:30,0.001,0.0,0.0,0.0
21/06/2022,01:05:30,-0.000,0.0,0.0,0.0
21/06/2022,01:06:29,0.000,0.0,0.0,0.0
21/06/2022,01:07:38,-0.000,0.0,0.0,0.0
21/06/2022,01:08:29,0.000,0.0,0.0,0.0
21/06/2022,01:09:30,0.001,0.0,0.0,0.0
21/06/2022,01:10:38,-0.000,0.0,0.0,0.0
21/06/2022,01:12:30,-0.000,0.0,0.0,0.0
21/06/2022,01:13:30,-0.000,0.0,0.0,0.0
21/06/2022,01:14:30,-0.001,0.0,0.0,0.0
21/06/2022,01:15:30,0.000,0.0,0.0,0.0
21/06/2022,01:16:30,0.000,0.0,0.0,0.0
21/06/2022,01:17:29,0.000,0.0,0.0,0.0
21/06/2022,01:18:38,-0.000,0.0,0.0,0.0
21/06/2022,01:19:29,0.000,0.0,0.0,0.0
21/06/2022,01:20:30,0.000,0.0,0.0,0.0
21/06/2022,01:21:29,0.000,0.0,0.0,0.0
21/06/2022,01:22:29,0.000,0.0,0.0,0.0
21/06/2022,01:23:38,-0.000,0.0,0.0,0.0
21/06/2022,01:24:29,0.001,0.0,0.0,0.0
21/06/2022,01:25:29,-0.001,0.0,0.0,0.0
21/06/2022,01:26:29,-0.000,0.0,0.0,0.0
21/06/2022,01:27:29,0.000,0.0,0.0,0.0
21/06/2022,01:28:29,0.000,0.0,0.0,0.0
21/06/2022,01:29:29,0.000,0.0,0.0,0.0
21/06/2022,01:30:31,0.000,0.0,0.0,0.0
21/06/2022,01:31:30,-0.000,0.0,0.0,0.0
21/06/2022,01:32:29,0.000,0.0,0.0,0.0
21/06/2022,01:33:30,0.001,0.0,0.0,0.0
21/06/2022,01:34:29,0.001,0.0,0.0,0.0
21/06/2022,01:35:29,-0.000,0.0,0.0,0.0
21/06/2022,01:36:29,0.000,0.0,0.0,0.0
21/06/2022,01:37:29,0.001,0.0,0.0,0.0
21/06/2022,01:38:30,-0.000,0.0,0.0,0.0
21/06/2022,01:39:30,-0.001,0.0,0.0,0.0
21/06/2022,01:40:30,0.000,0.0,0.0,0.0
21/06/2022,01:41:38,0.000,0.0,0.0,0.0
21/06/2022,01:43:39,0.000,0.0,0.0,0.0
21/06/2022,01:44:30,0.000,0.0,0.0,0.0
21/06/2022,01:45:29,0.000,0.0,0.0,0.0
21/06/2022,01:46:29,-0.000,0.0,0.0,0.0
21/06/2022,01:47:30,-0.001,0.0,0.0,0.0
21/06/2022,01:48:29,0.000,0.0,0.0,0.0
21/06/2022,01:49:30,0.000,0.0,0.0,0.0
21/06/2022,01:50:29,0.000,0.0,0.0,0.0
21/06/2022,01:51:30,-0.000,0.0,0.0,0.0
21/06/2022,01:52:29,0.000,0.0,0.0,0.0
21/06/2022,01:53:30,0.001,0.0,0.0,0.0
21/06/2022,01:54:37,0.000,0.0,0.0,0.0
21/06/2022,01:55:29,0.000,0.0,0.0,0.0
21/06/2022,01:56:29,0.000,0.0,0.0,0.0
21/06/2022,01:57:38,0.000,0.0,0.0,0.0
21/06/2022,01:59:30,0.001,0.0,0.0,0.0
21/06/2022,02:00:39,0.000,0.0,0.0,0.0
21/06/2022,02:01:29,0.000,0.0,0.0,0.0
21/06/2022,02:02:30,0.000,0.0,0.0,0.0
21/06/2022,02:03:37,0.000,0.0,0.0,0.0
21/06/2022,02:04:30,0.001,0.0,0.0,0.0
21/06/2022,02:05:29,-0.000,0.0,0.0,0.0
21/06/2022,02:06:29,0.000,0.0,0.0,0.0
21/06/2022,02:07:29,0.001,0.0,0.0,0.0
21/06/2022,02:08:30,0.000,0.0,0.0,0.0
21/06/2022,02:09:29,0.000,0.0,0.0,0.0
21/06/2022,02:10:30,0.001,0.0,0.0,0.0
21/06/2022,02:11:29,0.000,0.0,0.0,0.0
21/06/2022,02:12:30,0.002,0.0,0.0,0.0
21/06/2022,02:13:38,0.001,0.0,0.0,0.0
21/06/2022,02:15:30,0.000,0.0,0.0,0.0
21/06/2022,02:16:29,0.001,0.0,0.0,0.0
21/06/2022,02:17:30,-0.001,0.0,0.0,0.0
21/06/2022,02:18:30,-0.000,0.0,0.0,0.0
21/06/2022,02:19:31,0.001,0.0,0.0,0.0
21/06/2022,02:20:29,0.001,0.0,0.0,0.0
21/06/2022,02:21:30,0.000,0.0,0.0,0.0
21/06/2022,02:22:30,0.001,0.0,0.0,0.0
21/06/2022,02:23:29,0.000,0.0,0.0,0.0
21/06/2022,02:24:30,0.000,0.0,0.0,0.0
21/06/2022,02:25:29,0.000,0.0,0.0,0.0
21/06/2022,02:26:30,0.001,0.0,0.0,0.0
21/06/2022,02:27:29,-0.001,0.0,0.0,0.0
21/06/2022,02:28:29,0.000,0.0,0.0,0.0
21/06/2022,02:29:30,0.000,0.0,0.0,0.0
21/06/2022,02:30:30,0.000,0.0,0.0,0.0
21/06/2022,02:31:37,-0.001,0.0,0.0,0.0
21/06/2022,02:32:30,0.000,0.0,0.0,0.0
21/06/2022,02:33:29,-0.000,0.0,0.0,0.0
21/06/2022,02:34:30,-0.000,0.0,0.0,0.0
21/06/2022,02:35:29,0.000,0.0,0.0,0.0
21/06/2022,02:36:30,0.000,0.0,0.0,0.0
21/06/2022,02:37:29,0.002,0.0,0.0,0.0
21/06/2022,02:38:30,0.001,0.0,0.0,0.0
21/06/2022,02:39:29,0.001,0.0,0.0,0.0
21/06/2022,02:40:30,0.001,0.0,0.0,0.0
21/06/2022,02:41:30,0.000,0.0,0.0,0.0
21/06/2022,02:42:29,0.001,0.0,0.0,0.0
21/06/2022,02:43:29,0.000,0.0,0.0,0.0
21/06/2022,02:44:29,0.000,0.0,0.0,0.0
21/06/2022,02:45:29,0.001,0.0,0.0,0.0
21/06/2022,02:46:30,0.001,0.0,0.0,0.0
21/06/2022,02:47:29,0.000,0.0,0.0,0.0
21/06/2022,02:48:30,0.001,0.0,0.0,0.0
21/06/2022,02:49:29,0.001,0.0,0.0,0.0
21/06/2022,02:50:30,0.001,0.0,0.0,0.0
21/06/2022,02:51:30,0.001,0.0,0.0,0.0
21/06/2022,02:52:31,0.001,0.0,0.0,0.0
21/06/2022,02:53:29,0.001,0.0,0.0,0.0
21/06/2022,02:54:38,0.001,0.0,0.0,0.0
21/06/2022,02:55:30,0.001,0.0,0.0,0.0
21/06/2022,02:56:29,-0.000,0.0,0.0,0.0
21/06/2022,02:57:30,0.001,0.0,0.0,0.0
21/06/2022,02:58:29,0.001,0.0,0.0,0.0
21/06/2022,02:59:31,0.001,0.0,0.0,0.0
21/06/2022,03:00:30,0.000,0.0,0.0,0.0
21/06/2022,03:01:30,0.000,0.0,0.0,0.0
21/06/2022,03:02:36,-0.000,0.0,0.0,0.0
21/06/2022,03:03:30,0.001,0.0,0.0,0.0
21/06/2022,03:04:29,0.001,0.0,0.0,0.0
21/06/2022,03:05:30,0.001,0.0,0.0,0.0
21/06/2022,03:06:30,0.000,0.0,0.0,0.0
21/06/2022,03:07:29,0.000,0.0,0.0,0.0
21/06/2022,03:08:29,0.001,0.0,0.0,0.0
21/06/2022,03:09:30,0.001,0.0,0.0,0.0
21/06/2022,03:10:37,0.000,0.0,0.0,0.0
21/06/2022,03:11:30,0.000,0.0,0.0,0.0
21/06/2022,03:12:29,0.001,0.0,0.0,0.0
21/06/2022,03:13:29,0.000,0.0,0.0,0.0
21/06/2022,03:14:30,0.001,0.0,0.0,0.0
21/06/2022,03:15:29,0.001,0.0,0.0,0.0
21/06/2022,03:16:32,0.001,0.0,0.0,0.0
21/06/2022,03:17:30,0.001,0.0,0.0,0.0
21/06/2022,03:18:30,0.002,0.0,0.0,0.0
21/06/2022,03:19:30,0.000,0.0,0.0,0.0
21/06/2022,03:20:38,0.001,0.0,0.0,0.0
21/06/2022,03:21:29,0.001,0.0,0.0,0.0
21/06/2022,03:22:29,0.001,0.0,0.0,0.0
21/06/2022,03:23:30,0.001,0.0,0.0,0.0
21/06/2022,03:24:30,0.002,0.0,0.0,0.0
21/06/2022,03:25:29,0.001,0.0,0.0,0.0
21/06/2022,03:26:30,0.001,0.0,0.0,0.0
21/06/2022,03:27:30,0.001,0.0,0.0,0.0
21/06/2022,03:28:29,-0.000,0.0,0.0,0.0
21/06/2022,03:29:30,0.001,0.0,0.0,0.0
21/06/2022,03:30:38,0.002,0.0,0.0,0.0
21/06/2022,03:31:29,0.002,0.0,0.0,0.0
21/06/2022,03:32:30,0.002,0.0,0.0,0.0
21/06/2022,03:33:38,0.001,0.0,0.0,0.0
21/06/2022,03:34:29,0.001,0.0,0.0,0.0
21/06/2022,03:35:30,0.000,0.0,0.0,0.0
21/06/2022,03:36:38,0.001,0.0,0.0,0.0
21/06/2022,03:37:30,0.001,0.0,0.0,0.0
21/06/2022,03:38:30,0.001,0.0,0.0,0.0
21/06/2022,03:39:31,0.001,0.0,0.0,0.0
21/06/2022,03:40:29,0.001,0.0,0.0,0.0
21/06/2022,03:41:29,0.001,0.0,0.0,0.0
21/06/2022,03:42:29,0.003,0.0,0.0,0.0
21/06/2022,03:43:30,0.002,0.0,0.0,0.0
21/06/2022,03:44:30,0.002,0.0,0.0,0.0
21/06/2022,03:45:29,0.002,0.0,0.0,0.0
21/06/2022,03:46:38,0.002,0.0,0.0,0.0
21/06/2022,03:47:29,0.002,0.0,0.0,0.0
21/06/2022,03:48:30,0.002,0.0,0.0,0.0
21/06/2022,03:49:38,0.002,0.0,0.0,0.0
21/06/2022,03:50:30,0.002,0.0,0.0,0.0
21/06/2022,03:51:30,0.003,0.0,0.0,0.0
21/06/2022,03:52:30,0.003,0.0,0.0,0.0
21/06/2022,03:53:30,0.003,0.0,0.0,0.0
21/06/2022,03:54:29,0.002,0.0,0.0,0.0
21/06/2022,03:55:29,0.003,0.0,0.0,0.0
21/06/2022,03:56:30,0.003,0.0,0.0,0.0
21/06/2022,03:57:30,0.003,0.0,0.0,0.0
21/06/2022,03:58:29,0.004,0.0,0.0,0.0
21/06/2022,03:59:38,0.004,0.0,0.0,0.0
21/06/2022,04:00:29,0.003,0.0,0.0,0.0
21/06/2022,04:01:30,0.004,0.0,0.0,0.0
21/06/2022,04:02:29,0.005,0.0,0.0,0.0
21/06/2022,04:03:30,0.005,0.0,0.0,0.0
21/06/2022,04:04:29,0.004,0.0,0.0,0.0
21/06/2022,04:05:29,0.005,0.0,0.0,0.0
21/06/2022,04:06:29,0.004,0.0,0.0,0.0
21/06/2022,04:07:30,0.005,0.0,0.0,0.0
21/06/2022,04:08:30,0.004,0.0,0.0,0.0
21/06/2022,04:09:30,0.005,0.0,0.0,0.0
21/06/2022,04:10:30,0.006,0.0,0.0,0.0
21/06/2022,04:11:30,0.006,0.0,0.0,0.0
21/06/2022,04:12:29,0.006,0.0,0.0,0.0
21/06/2022,04:13:30,0.006,0.0,0.0,0.0
21/06/2022,04:14:29,0.006,0.0,0.0,0.0
21/06/2022,04:15:38,0.007,0.0,0.0,0.0
21/06/2022,04:16:29,0.007,0.0,0.0,0.0
21/06/2022,04:17:30,0.007,0.0,0.001,0.001
21/06/2022,04:18:38,0.008,0.0,0.001,0.0
21/06/2022,04:19:29,0.008,0.0,0.001,0.0
21/06/2022,04:20:29,0.008,0.0,0.001,0.0
21/06/2022,04:21:30,0.009,0.0,0.001,0.0
21/06/2022,04:22:30,0.009,0.0,0.001,0.0
21/06/2022,04:23:31,0.008,0.0,0.001,0.0
21/06/2022,04:24:30,0.009,0.0,0.002,0.001
21/06/2022,04:25:29,0.010,0.0,0.002,0.0
21/06/2022,04:26:31,0.010,0.0,0.002,0.0
21/06/2022,04:27:30,0.010,0.0,0.002,0.0
21/06/2022,04:28:38,0.011,0.0,0.002,0.0
21/06/2022,04:29:30,0.011,0.0,0.002,0.0
21/06/2022,04:30:30,0.011,0.0,0.003,0.001
21/06/2022,04:31:29,0.012,0.0,0.003,0.0
21/06/2022,04:32:30,0.013,0.0,0.003,0.0
21/06/2022,04:33:30,0.014,0.0,0.003,0.0
21/06/2022,04:34:29,0.013,0.0,0.003,0.0
21/06/2022,04:35:29,0.013,0.0,0.004,0.001
21/06/2022,04:36:30,0.015,0.0,0.004,0.0
21/06/2022,04:37:30,0.014,0.0,0.004,0.0
21/06/2022,04:38:30,0.015,0.0,0.004,0.0
21/06/2022,04:39:30,0.015,0.0,0.005,0.001
21/06/2022,04:40:30,0.016,0.0,0.005,0.0
21/06/2022,04:41:31,0.016,0.0,0.005,0.0
21/06/2022,04:42:30,0.018,0.0,0.005,0.0
21/06/2022,04:43:32,0.017,0.0,0.006,0.001
21/06/2022,04:44:38,0.018,0.0,0.006,0.0
21/06/2022,04:45:29,0.018,0.0,0.006,0.0
21/06/2022,04:46:30,0.019,0.0,0.007,0.001
21/06/2022,04:47:30,0.020,0.0,0.007,0.0
21/06/2022,04:48:29,0.020,0.0,0.007,0.0
21/06/2022,04:49:30,0.021,0.0,0.008,0.001
21/06/2022,04:50:30,0.021,0.0,0.008,0.0
21/06/2022,04:51:30,0.022,0.0,0.008,0.0
21/06/2022,04:52:30,0.023,0.0,0.009,0.001
21/06/2022,04:53:30,0.023,0.0,0.009,0.0
21/06/2022,04:54:30,0.024,0.0,0.009,0.0
21/06/2022,04:55:29,0.024,0.0,0.01,0.001
21/06/2022,04:56:30,0.026,0.0,0.01,0.0
21/06/2022,04:57:29,0.026,0.0,0.011,0.001
21/06/2022,04:58:30,0.027,0.0,0.011,0.0
21/06/2022,04:59:29,0.028,0.0,0.012,0.001
21/06/2022,05:00:31,0.028,0.0,0.012,0.0
21/06/2022,05:01:29,0.030,0.0,0.013,0.001
21/06/2022,05:02:29,0.031,0.0,0.013,0.0
21/06/2022,05:03:29,0.032,0.0,0.014,0.001
21/06/2022,05:04:30,0.032,0.0,0.014,0.0
21/06/2022,05:05:30,0.033,0.0,0.015,0.001
21/06/2022,05:06:29,0.034,0.0,0.015,0.0
21/06/2022,05:07:38,0.034,0.0,0.016,0.001
21/06/2022,05:08:38,0.036,0.0,0.016,0.0
21/06/2022,05:09:29,0.036,0.0,0.017,0.001
21/06/2022,05:10:30,0.038,0.0,0.018,0.001
21/06/2022,05:11:29,0.039,0.0,0.018,0.0
21/06/2022,05:12:30,0.040,0.0,0.019,0.001
21/06/2022,05:13:30,0.041,0.0,0.02,0.001
21/06/2022,05:14:30,0.041,0.0,0.02,0.0
21/06/2022,05:15:30,0.043,0.0,0.021,0.001
21/06/2022,05:16:29,0.044,0.0,0.022,0.001
21/06/2022,05:17:29,0.045,0.0,0.022,0.0
21/06/2022,05:18:29,0.046,0.0,0.023,0.001
21/06/2022,05:19:30,0.047,0.0,0.024,0.001
21/06/2022,05:20:32,0.049,0.0,0.025,0.001
21/06/2022,05:21:29,0.050,0.0,0.026,0.001
21/06/2022,05:22:30,0.050,0.0,0.026,0.0
21/06/2022,05:23:29,0.053,0.0,0.027,0.001
21/06/2022,05:24:30,0.053,0.0,0.028,0.001
21/06/2022,05:25:30,0.055,0.0,0.029,0.001
21/06/2022,05:26:30,0.056,0.0,0.03,0.001
21/06/2022,05:27:30,0.057,0.0,0.031,0.001
21/06/2022,05:28:31,0.059,0.0,0.032,0.001
21/06/2022,05:29:29,0.060,0.0,0.033,0.001
21/06/2022,05:30:30,0.061,0.0,0.034,0.001
21/06/2022,05:31:30,0.062,0.0,0.035,0.001
21/06/2022,05:32:29,0.064,0.0,0.036,0.001
21/06/2022,05:33:31,0.065,0.0,0.037,0.001
21/06/2022,05:34:30,0.067,0.0,0.038,0.001
21/06/2022,05:35:30,0.068,0.0,0.039,0.001
21/06/2022,05:36:29,0.069,0.0,0.04,0.001
21/06/2022,05:37:30,0.071,0.0,0.042,0.002
21/06/2022,05:38:29,0.073,0.0,0.043,0.001
21/06/2022,05:39:30,0.074,0.0,0.044,0.001
21/06/2022,05:40:29,0.076,0.0,0.045,0.001
21/06/2022,05:41:38,0.078,0.0,0.047,0.002
21/06/2022,05:42:30,0.081,0.0,0.048,0.001
21/06/2022,05:43:30,0.081,0.0,0.049,0.001
21/06/2022,05:44:30,0.082,0.0,0.051,0.002
21/06/2022,05:45:29,0.085,0.0,0.052,0.001
21/06/2022,05:46:30,0.087,0.0,0.053,0.001
21/06/2022,05:47:30,0.089,0.0,0.055,0.002
21/06/2022,05:48:29,0.091,0.0,0.056,0.001
21/06/2022,05:49:30,0.092,0.0,0.058,0.002
21/06/2022,05:50:29,0.095,0.0,0.059,0.001
21/06/2022,05:51:30,0.098,0.0,0.061,0.002
21/06/2022,05:52:30,0.099,0.0,0.063,0.002
21/06/2022,05:53:29,0.101,0.0,0.064,0.001
21/06/2022,05:54:38,0.103,0.0,0.066,0.002
21/06/2022,05:55:30,0.104,0.0,0.068,0.002
21/06/2022,05:56:29,0.107,0.0,0.07,0.002
21/06/2022,05:57:38,0.110,0.0,0.072,0.002
21/06/2022,05:58:30,0.112,0.0,0.073,0.001
21/06/2022,05:59:30,0.114,0.0,0.075,0.002
21/06/2022,06:00:30,0.116,0.0,0.077,0.002
21/06/2022,06:01:30,0.118,0.0,0.079,0.002
21/06/2022,06:02:30,0.120,0.0,0.081,0.002
21/06/2022,06:03:30,0.123,0.0,0.083,0.002
21/06/2022,06:04:30,0.125,0.0,0.085,0.002
21/06/2022,06:05:30,0.128,0.0,0.087,0.002
21/06/2022,06:06:29,0.130,0.0,0.089,0.002
21/06/2022,06:07:38,0.133,0.0,0.092,0.003
21/06/2022,06:08:29,0.134,0.0,0.094,0.002
21/06/2022,06:09:30,0.136,0.0,0.096,0.002
21/06/2022,06:10:29,0.139,0.0,0.098,0.002
21/06/2022,06:11:30,0.142,0.0,0.1,0.002
21/06/2022,06:12:29,0.142,0.0,0.103,0.003
21/06/2022,06:13:29,0.145,0.0,0.105,0.002
21/06/2022,06:14:30,0.148,0.0,0.108,0.003
21/06/2022,06:15:31,0.149,0.0,0.11,0.002
21/06/2022,06:16:30,0.149,0.0,0.113,0.003
21/06/2022,06:17:39,0.149,0.0,0.115,0.002
21/06/2022,06:18:30,0.151,0.0,0.118,0.003
21/06/2022,06:19:30,0.154,0.0,0.12,0.002
21/06/2022,06:20:38,0.157,0.0,0.123,0.003
21/06/2022,06:21:30,0.159,0.0,0.125,0.002
21/06/2022,06:22:30,0.161,0.0,0.128,0.003
21/06/2022,06:23:30,0.166,0.0,0.131,0.003
21/06/2022,06:24:30,0.170,0.0,0.134,0.003
21/06/2022,06:25:30,0.176,0.0,0.137,0.003
21/06/2022,06:26:29,0.180,0.0,0.139,0.002
21/06/2022,06:27:30,0.182,0.0,0.143,0.004
21/06/2022,06:28:40,0.187,0.0,0.146,0.003
21/06/2022,06:29:28,0.191,0.0,0.149,0.003
21/06/2022,06:30:30,0.192,0.0,0.152,0.003
21/06/2022,06:31:30,0.196,0.0,0.155,0.003
21/06/2022,06:32:30,0.202,0.0,0.158,0.003
21/06/2022,06:33:30,0.205,0.0,0.162,0.004
21/06/2022,06:34:29,0.208,0.0,0.165,0.003
21/06/2022,06:35:30,0.211,0.0,0.169,0.004
21/06/2022,06:36:29,0.214,0.0,0.172,0.003
21/06/2022,06:37:30,0.219,1.0,0.176,0.004
21/06/2022,06:38:38,0.222,1.0,0.18,0.004
21/06/2022,06:39:30,0.226,1.0,0.183,0.003
21/06/2022,06:40:30,0.233,1.0,0.187,0.004
21/06/2022,06:41:30,0.234,1.0,0.191,0.004
21/06/2022,06:42:30,0.242,1.0,0.195,0.004
21/06/2022,06:43:38,0.251,1.0,0.2,0.005
21/06/2022,06:44:38,0.256,1.0,0.204,0.004
21/06/2022,06:45:29,0.260,1.0,0.208,0.004
21/06/2022,06:46:29,0.266,1.0,0.212,0.004
21/06/2022,06:47:30,0.270,1.0,0.217,0.005
21/06/2022,06:48:38,0.275,1.0,0.222,0.005
21/06/2022,06:49:30,0.275,1.0,0.226,0.004
21/06/2022,06:50:30,0.275,1.0,0.23,0.004
21/06/2022,06:51:30,0.276,1.0,0.235,0.005
21/06/2022,06:52:30,0.280,1.0,0.239,0.004
21/06/2022,06:53:30,0.281,1.0,0.244,0.005
21/06/2022,06:54:38,0.286,1.0,0.249,0.005
21/06/2022,06:55:30,0.296,1.0,0.254,0.005
21/06/2022,06:56:30,0.299,1.0,0.259,0.005
21/06/2022,06:57:30,0.305,1.0,0.264,0.005
21/06/2022,06:58:30,0.313,1.0,0.269,0.005
21/06/2022,06:59:30,0.324,1.0,0.274,0.005
21/06/2022,07:00:29,0.332,1.0,0.28,0.006
21/06/2022,07:01:38,0.337,1.0,0.286,0.006
21/06/2022,07:02:30,0.343,1.0,0.291,0.005
21/06/2022,07:03:30,0.347,1.0,0.297,0.006
21/06/2022,07:04:30,0.352,1.0,0.302,0.005
21/06/2022,07:05:30,0.356,1.0,0.308,0.006
21/06/2022,07:06:30,0.362,1.0,0.314,0.006
21/06/2022,07:07:29,0.366,1.0,0.32,0.006
21/06/2022,07:08:30,0.372,1.0,0.326,0.006
21/06/2022,07:09:30,0.371,1.0,0.333,0.007
21/06/2022,07:10:30,0.373,1.0,0.339,0.006
21/06/2022,07:11:38,0.372,1.0,0.346,0.007
21/06/2022,07:12:29,0.362,1.0,0.351,0.005
21/06/2022,07:13:30,0.364,1.0,0.357,0.006
21/06/2022,07:14:30,0.356,1.0,0.363,0.006
21/06/2022,07:15:30,0.357,1.0,0.369,0.006
21/06/2022,07:16:29,0.365,1.0,0.375,0.006
21/06/2022,07:17:31,0.381,1.0,0.381,0.006
21/06/2022,07:18:30,0.393,1.0,0.388,0.007
21/06/2022,07:19:29,0.402,1.0,0.395,0.007
21/06/2022,07:20:31,0.416,1.0,0.402,0.007
21/06/2022,07:21:38,0.429,1.0,0.409,0.007
21/06/2022,07:22:30,0.430,1.0,0.416,0.007
21/06/2022,07:23:30,0.429,1.0,0.423,0.007
21/06/2022,07:24:30,0.434,1.0,0.43,0.007
21/06/2022,07:25:30,0.445,1.0,0.437,0.007
21/06/2022,07:26:30,0.451,1.0,0.445,0.008
21/06/2022,07:27:30,0.439,1.0,0.452,0.007
21/06/2022,07:28:31,0.459,1.0,0.46,0.008
21/06/2022,07:29:30,0.480,1.0,0.468,0.008
21/06/2022,07:30:30,0.493,1.0,0.476,0.008
21/06/2022,07:31:29,0.498,1.0,0.484,0.008
21/06/2022,07:32:29,0.503,1.0,0.492,0.008
21/06/2022,07:33:30,0.506,1.0,0.501,0.009
21/06/2022,07:34:38,0.503,1.0,0.51,0.009
21/06/2022,07:35:30,0.491,1.0,0.517,0.007
21/06/2022,07:36:30,0.524,1.0,0.526,0.009
21/06/2022,07:37:30,0.520,1.0,0.535,0.009
21/06/2022,07:38:29,0.542,1.0,0.543,0.008
21/06/2022,07:39:30,0.549,1.0,0.553,0.01
21/06/2022,07:40:30,0.556,1.0,0.562,0.009
21/06/2022,07:41:30,0.562,1.0,0.571,0.009
21/06/2022,07:42:30,0.569,1.0,0.581,0.01
21/06/2022,07:43:30,0.573,1.0,0.59,0.009
21/06/2022,07:44:38,0.590,1.0,0.601,0.011
21/06/2022,07:46:31,0.604,1.0,0.62,0.019
21/06/2022,07:47:30,0.610,1.0,0.63,0.01
21/06/2022,07:48:30,0.615,1.0,0.64,0.01
21/06/2022,07:49:30,0.621,1.0,0.65,0.01
21/06/2022,07:50:30,0.623,1.0,0.661,0.011
21/06/2022,07:51:30,0.625,1.0,0.671,0.01
21/06/2022,07:52:30,0.633,1.0,0.681,0.01
21/06/2022,07:53:30,0.632,1.0,0.692,0.011
21/06/2022,07:54:38,0.637,1.0,0.704,0.012
21/06/2022,07:55:30,0.648,1.0,0.713,0.009
21/06/2022,07:56:30,0.630,1.0,0.724,0.011
21/06/2022,07:57:29,0.640,1.0,0.734,0.01
21/06/2022,07:58:30,0.654,2.0,0.745,0.011
21/06/2022,07:59:30,0.668,2.0,0.756,0.011
21/06/2022,08:00:29,0.672,2.0,0.767,0.011
21/06/2022,08:01:30,0.685,2.0,0.779,0.012
21/06/2022,08:02:30,0.704,2.0,0.79,0.011
21/06/2022,08:03:30,0.711,2.0,0.802,0.012
21/06/2022,08:04:30,0.710,2.0,0.814,0.012
21/06/2022,08:05:30,0.725,2.0,0.826,0.012
21/06/2022,08:06:30,0.738,2.0,0.838,0.012
21/06/2022,08:07:30,0.751,2.0,0.85,0.012
21/06/2022,08:08:30,0.731,2.0,0.863,0.013
21/06/2022,08:09:30,0.731,2.0,0.875,0.012
21/06/2022,08:10:30,0.695,2.0,0.887,0.012
21/06/2022,08:11:30,0.727,2.0,0.899,0.012
21/06/2022,08:12:30,0.742,2.0,0.911,0.012
21/06/2022,08:13:29,0.727,2.0,0.923,0.012
21/06/2022,08:14:30,0.733,2.0,0.935,0.012
21/06/2022,08:15:30,0.732,2.0,0.948,0.013
21/06/2022,08:16:29,0.742,2.0,0.96,0.012
21/06/2022,08:17:30,0.780,2.0,0.973,0.013
21/06/2022,08:18:30,0.785,2.0,0.986,0.013
21/06/2022,08:19:30,0.767,2.0,0.999,0.013
21/06/2022,08:20:38,0.780,2.0,1.013,0.014
21/06/2022,08:21:39,0.789,2.0,1.026,0.013
21/06/2022,08:22:30,0.796,2.0,1.038,0.012
21/06/2022,08:23:30,0.812,2.0,1.051,0.013
21/06/2022,08:24:30,0.814,2.0,1.064,0.013
21/06/2022,08:25:29,0.799,2.0,1.078,0.014
21/06/2022,08:26:30,0.826,2.0,1.091,0.013
21/06/2022,08:27:30,0.817,2.0,1.105,0.014
21/06/2022,08:28:30,0.831,2.0,1.119,0.014
21/06/2022,08:29:31,0.842,2.0,1.133,0.014
21/06/2022,08:30:38,0.834,2.0,1.149,0.016
21/06/2022,08:32:30,0.846,2.0,1.175,0.026
21/06/2022,08:33:38,0.857,2.0,1.191,0.016
21/06/2022,08:34:30,0.860,2.0,1.203,0.012
21/06/2022,08:35:38,0.877,2.0,1.22,0.017
21/06/2022,08:36:30,0.891,2.0,1.232,0.012
21/06/2022,08:37:30,0.911,2.0,1.247,0.015
21/06/2022,08:38:30,0.894,2.0,1.263,0.016
21/06/2022,08:39:30,0.884,2.0,1.277,0.014
21/06/2022,08:40:30,0.867,2.0,1.292,0.015
21/06/2022,08:41:30,0.853,2.0,1.306,0.014
21/06/2022,08:42:30,0.834,2.0,1.32,0.014
21/06/2022,08:43:30,0.829,2.0,1.334,0.014
21/06/2022,08:44:38,0.836,2.0,1.35,0.016
21/06/2022,08:45:30,0.855,2.0,1.362,0.012
21/06/2022,08:46:39,0.861,2.0,1.378,0.016
21/06/2022,08:48:39,0.898,2.0,1.408,0.03
21/06/2022,08:49:30,0.954,2.0,1.421,0.013
21/06/2022,08:50:30,0.975,2.0,1.437,0.016
21/06/2022,08:51:30,0.999,2.0,1.453,0.016
21/06/2022,08:52:30,1.017,2.0,1.47,0.017
21/06/2022,08:53:30,1.008,2.0,1.487,0.017
21/06/2022,08:54:30,1.000,2.0,1.504,0.017
21/06/2022,08:55:30,1.015,2.0,1.521,0.017
21/06/2022,08:56:30,1.009,2.0,1.537,0.016
21/06/2022,08:57:30,1.045,2.0,1.555,0.018
21/06/2022,08:58:30,1.045,2.0,1.572,0.017
21/06/2022,08:59:30,1.069,2.0,1.589,0.017
21/06/2022,09:00:32,1.061,2.0,1.608,0.019
21/06/2022,09:01:30,1.033,2.0,1.625,0.017
21/06/2022,09:02:30,1.059,2.0,1.642,0.017
21/06/2022,09:03:30,1.016,2.0,1.659,0.017
21/06/2022,09:04:30,1.061,2.0,1.677,0.018
21/06/2022,09:05:30,1.065,2.0,1.695,0.018
21/06/2022,09:06:30,1.091,3.0,1.713,0.018
21/06/2022,09:07:30,1.129,3.0,1.731,0.018
21/06/2022,09:08:38,1.166,3.0,1.753,0.022
21/06/2022,09:09:30,1.175,3.0,1.77,0.017
21/06/2022,09:10:30,1.195,3.0,1.79,0.02
21/06/2022,09:11:30,1.203,3.0,1.81,0.02
21/06/2022,09:12:39,1.207,3.0,1.832,0.022
21/06/2022,09:13:38,1.186,3.0,1.852,0.02
21/06/2022,09:14:38,1.008,2.0,1.871,0.019
21/06/2022,09:15:30,0.870,2.0,1.884,0.013
21/06/2022,09:16:30,0.808,2.0,1.897,0.013
21/06/2022,09:17:30,0.819,2.0,1.911,0.014
21/06/2022,09:18:30,0.834,2.0,1.925,0.014
21/06/2022,09:19:30,0.811,2.0,1.938,0.013
21/06/2022,09:20:30,0.834,2.0,1.952,0.014
21/06/2022,09:21:30,0.859,2.0,1.966,0.014
21/06/2022,09:22:39,0.903,2.0,1.983,0.017
21/06/2022,09:23:30,0.921,2.0,1.996,0.013
21/06/2022,09:24:31,0.973,2.0,2.012,0.016
21/06/2022,09:25:30,0.987,2.0,2.028,0.016
21/06/2022,09:26:30,1.001,2.0,2.045,0.017
21/06/2022,09:27:30,1.052,2.0,2.062,0.017
21/06/2022,09:28:30,1.073,2.0,2.08,0.018
21/06/2022,09:29:31,1.074,2.0,2.097,0.017
21/06/2022,09:30:30,1.111,3.0,2.116,0.019
21/06/2022,09:31:30,1.151,3.0,2.135,0.019
21/06/2022,09:32:30,1.168,3.0,2.154,0.019
21/06/2022,09:33:30,1.193,3.0,2.173,0.019
21/06/2022,09:34:30,1.176,3.0,2.193,0.02
21/06/2022,09:35:39,1.167,3.0,2.216,0.023
21/06/2022,09:36:30,1.162,3.0,2.233,0.017
21/06/2022,09:37:30,1.174,3.0,2.252,0.019
21/06/2022,09:38:38,1.225,3.0,2.275,0.023
21/06/2022,09:39:30,1.268,3.0,2.293,0.018
21/06/2022,09:40:32,1.317,3.0,2.315,0.022
21/06/2022,09:41:30,1.308,3.0,2.336,0.021
21/06/2022,09:42:30,1.310,3.0,2.358,0.022
21/06/2022,09:43:30,1.289,3.0,2.38,0.022
21/06/2022,09:44:31,1.300,3.0,2.401,0.021
21/06/2022,09:45:30,1.259,3.0,2.423,0.022
21/06/2022,09:46:31,1.278,3.0,2.442,0.019
21/06/2022,09:47:30,1.273,3.0,2.464,0.022
21/06/2022,09:48:40,1.345,3.0,2.489,0.025
21/06/2022,09:49:30,1.372,3.0,2.508,0.019
21/06/2022,09:50:30,1.322,3.0,2.531,0.023
21/06/2022,09:51:30,1.331,3.0,2.552,0.021
21/06/2022,09:52:30,1.309,3.0,2.574,0.022
21/06/2022,09:53:30,1.144,3.0,2.595,0.021
21/06/2022,09:54:30,1.284,3.0,2.616,0.021
21/06/2022,09:55:30,1.274,3.0,2.637,0.021
21/06/2022,09:56:30,1.242,3.0,2.658,0.021
21/06/2022,09:57:30,1.225,3.0,2.679,0.021
21/06/2022,09:58:38,1.215,3.0,2.702,0.023
21/06/2022,09:59:30,1.183,3.0,2.719,0.017
21/06/2022,10:00:30,1.166,3.0,2.739,0.02
21/06/2022,10:01:30,1.130,3.0,2.758,0.019
21/06/2022,10:02:31,1.120,3.0,2.776,0.018
21/06/2022,10:03:30,1.140,3.0,2.795,0.019
21/06/2022,10:04:30,1.186,3.0,2.814,0.019
21/06/2022,10:05:30,1.227,3.0,2.834,0.02
21/06/2022,10:06:30,1.252,3.0,2.855,0.021
21/06/2022,10:07:30,1.289,3.0,2.876,0.021
21/06/2022,10:08:30,1.270,3.0,2.898,0.022
21/06/2022,10:09:30,1.304,3.0,2.918,0.02
21/06/2022,10:10:31,1.087,2.0,2.937,0.019
21/06/2022,10:11:31,1.090,3.0,2.956,0.019